This is the latest recevied weather packets stored in our database for station/object OE1HTB-13. If no packets are shown the sender has not sent any weather packets the latest 10 day(s).
| Time | Temp. | Humidity | Pressure | Rain* | Wind** | Luminosity | Snow |
|---|---|---|---|---|---|---|---|
| 1788504374 | 21.67° C | 61% | 1018 hPa | 0 mm | - | 114 W/m² | - |
| 1788503474 | 21.67° C | 63% | 1017.8 hPa | 0 mm | - | 100 W/m² | - |
| 1788502574 | 21.11° C | 64% | 1017.9 hPa | 0 mm | - | 93 W/m² | - |
| 1788501675 | 21.11° C | 64% | 1017.8 hPa | 0 mm | - | 69 W/m² | - |
| 1788500774 | 20.56° C | 63% | 1017.7 hPa | 0 mm | - | 65 W/m² | - |
| 1788499874 | 20.56° C | 64% | 1017.7 hPa | 0 mm | - | 40 W/m² | - |
| 1788498973 | 20.56° C | 64% | 1017.8 hPa | 0 mm | - | 28 W/m² | - |
| 1788498073 | 20° C | 65% | 1017.7 hPa | 0 mm | - | 47 W/m² | - |
| 1788497173 | 20° C | 65% | 1017.7 hPa | 0 mm | - | 23 W/m² | - |
| 1788496273 | 20° C | 64% | 1017.7 hPa | 0 mm | - | 9 W/m² | - |
| 1788495374 | 20° C | 64% | 1017.8 hPa | 0 mm | - | 0 W/m² | - |
| 1788494473 | 20° C | 64% | 1017.8 hPa | 0 mm | - | 0 W/m² | - |
| 1788493574 | 20° C | 63% | 1017.8 hPa | 0 mm | - | 0 W/m² | - |
| 1788492673 | 20° C | 64% | 1017.7 hPa | 0 mm | - | 0 W/m² | - |
| 1788491773 | 20° C | 65% | 1017.7 hPa | 0 mm | - | 0 W/m² | - |
| 1788490872 | 20° C | 65% | 1017.6 hPa | 0 mm | - | 0 W/m² | - |
| 1788489972 | 19.44° C | 66% | 1017.6 hPa | 0 mm | - | 0 W/m² | - |
| 1788489073 | 19.44° C | 67% | 1017.7 hPa | 0 mm | - | 0 W/m² | - |
| 1788488173 | 19.44° C | 67% | 1017.6 hPa | 0 mm | - | 0 W/m² | - |
| 1788487272 | 19.44° C | 68% | 1017.7 hPa | 0 mm | - | 0 W/m² | - |
| 1788486372 | 18.89° C | 69% | 1017.8 hPa | 0 mm | - | 0 W/m² | - |
| 1788485471 | 18.89° C | 69% | 1017.8 hPa | 0 mm | - | 0 W/m² | - |
| 1788484571 | 18.89° C | 69% | 1017.9 hPa | 0 mm | - | 0 W/m² | - |
| 1788483671 | 19.44° C | 69% | 1017.9 hPa | 0 mm | - | 0 W/m² | - |
| 1788482771 | 19.44° C | 68% | 1018 hPa | 0 mm | - | 0 W/m² | - |
* Rain latest hour (hover to see other rain measurements)
** Current wind speed in m/s (hover to see current wind gust speed)